Regional Weather Roundup
Issued by NWS

Home | Current Version | Previous Version | Text Only | Print | Product List | Glossary Off
Versions: 1 2 3 4 5 6 7 8 9 10 11 12 13 14 15 16 17 18 19 20 21 22 23 24 25 26 27 28 29 30 31 32 33 34 35 36 37 38 39 40 41 42 43 44 45 46 47 48 49 50

000
ASUS43 KLMK 201910
RWRKY
KENTUCKY REGIONAL WEATHER ROUNDUP
NATIONAL WEATHER SERVICE LOUISVILLE KY
300 PM EDT WED SEP 20 2017

NOTE "FAIR" INDICATES FEW OR NO CLOUDS BELOW 12,000 FEET
WITH NO SIGNIFICANT WEATHER AND/OR OBSTRUCTIONS TO VISIBILITY.

KYZ001>023-026-027-061>063-070>075-202000-
WESTERN AND SOUTH CENTRAL KENTUCKY

CITY           SKY/WX    TMP DP  RH WIND       PRES   REMARKS
PADUCAH        MOSUNNY   91  70  49 SW9G17    29.95F HX  96
HENDERSON      MOSUNNY   89  71  55 SW8       29.96F HX  95
OWENSBORO      MOSUNNY   90  72  55 SW10      29.97F HX  97
HOPKINSVILLE   MOSUNNY   89  72  56 SW9       29.98F HX  96
BOWLING GREEN  MOSUNNY   88  72  58 W5        30.00F HX  94
GLASGOW        MOSUNNY   82  72  69 CALM      30.02F
$$

KYZ024-025-028>034-038-045-046-053-202000-
NORTH CENTRAL KENTUCKY

CITY           SKY/WX    TMP DP  RH WIND       PRES   REMARKS
LOUISVILLE/SDF CLOUDY    86  71  60 VRB6      29.99F HX  91
LOUISVILLE/LOU MOSUNNY   83  73  72 S3        30.00F
FORT KNOX      MOSUNNY   87  71  59 W7        29.99F HX  92
$$

KYZ035>037-039>044-047>052-055>060-089>105-202000-
NORTHEAST KENTUCKY

CITY           SKY/WX    TMP DP  RH WIND       PRES   REMARKS
LEXINGTON      MOSUNNY   84  67  56 VRB3      30.04F
COVINGTON      PTSUNNY   83  69  62 VRB7      30.02F
FRANKFORT      MOSUNNY   84  66  54 SW6       30.01F
$$

KYZ054-064>069-076>088-106>120-202000-
SOUTHEAST KENTUCKY

CITY           SKY/WX    TMP DP  RH WIND       PRES   REMARKS
JACKSON        MOSUNNY   83  67  58 CALM      30.06F
LONDON         PTSUNNY   83  64  52 VRB5      30.05F
SOMERSET       PTSUNNY   81  64  57 CALM      30.05F
MIDDLESBORO    MOSUNNY   82  66  58 NE3       30.06F
MONTICELLO     PTCLDY    84  69  60 N12       30.05F
$$





USA.gov is the U.S. government's official web portal to all federal, state and local government web resources and services.